Regional Weather Roundup
Issued by NWS

Home | Current Version | Previous Version | Text Only | Print | Product List | Glossary Off
Versions: 1 2 3 4 5 6 7 8 9 10 11 12 13 14 15 16 17 18 19 20 21 22 23 24 25 26 27 28 29 30 31 32 33 34 35 36 37 38 39 40 41 42 43 44 45 46 47 48 49 50

112
ASUS43 KLOT 230808
RWRIL

ILLINOIS REGIONAL WEATHER ROUNDUP
NATIONAL WEATHER SERVICE CHICAGO/ROMEOVILLE IL
200 AM CST FRI FEB 23 2018

NOTE: "FAIR" INDICATES FEW OR NO CLOUDS BELOW 12,000 FEET WITH NO
SIGNIFICANT WEATHER AND/OR OBSTRUCTIONS TO VISIBILITY.

* THESE STATIONS ARE NOT UNDER NWS QUALITY CONTROL. THEY ALSO MAY NOT
  REPORT WEATHER SUCH AS PRECIPITATION OR FOG.

ILZ001-002-007-009-015-016-024-230900-
NORTHWEST ILLINOIS

CITY           SKY/WX    TMP DP  RH WIND       PRES   REMARKS
MOLINE         CLOUDY    39  39 100 SE3       30.12F FOG
STERLING*      LGT RAIN  39  39 100 SE8       30.15F VSB 3/4 WCI  33
SAVANNA*       FOG       37  37  99 SE8       30.13F VSB 1/2 WCI  30
$$

ILZ003-004-008-010-011-017-018-230900-
NORTH CENTRAL ILLINOIS

CITY           SKY/WX    TMP DP  RH WIND       PRES   REMARKS
ROCKFORD       DRZL/FOG  37  36  96 SE12      30.17F VSB 1   WCI  29
FREEPORT*      FOG       34  34 100 E5        30.16F VSB 1/2 WCI  30
ROCHELLE*      FOG       37  37 100 SE10      30.17S VSB 3/4 WCI  30
DE KALB*       FOG       38  38  99 SE14G21   30.17F VSB 1/2 WCI  30
PERU*          CLOUDY    40  40  99 SE8       30.15F FOG
$$

ILZ005-006-012>014-019>023-230900-
NORTHEAST ILLINOIS

CITY           SKY/WX    TMP DP  RH WIND       PRES   REMARKS
CHICAGO-OHARE  CLOUDY    39  37  92 SE9       30.18F FOG     WCI  33
CHICAGO-MIDWAY CLOUDY    40  38  93 SE12      30.20F FOG
AURORA         CLOUDY    40  39  97 SE13      30.18F FOG
LANSING*       CLOUDY    38  38 100 SE9       30.22F FOG     WCI  31
JOLIET*        CLOUDY    40  40 100 SE9       30.19F FOG
WAUKEGAN       FOG       35  35 100 SE10      30.19F VSB 1   WCI  27
DUPAGE AIRPORT CLOUDY    39  39 100 SE12      30.17F FOG     WCI  32
KANKAKEE*      FOG       40  39  99 SE13      30.20F VSB 3/4
WHEELING       CLOUDY    39  38  96 SE6       30.20F FOG     WCI  35
MORRIS*        FOG       40  39  98 SE9       30.18F VSB 1
ROMEOVILLE*    CLOUDY    38  38  97 SE13      30.19F FOG     WCI  31
NORTHERLY ISL    N/A     35  34  96 SE9         N/A  WCI  28
$$

LMZ740>746-230900-
SOUTHERN LAKE MICHIGAN

STATION/POSITION SKY/WX   TEMP    WIND        PRES    VSBY  WAVE
                          AIR SEA DIR/SP/G                  HT/PER
                          (F)     (DEG/KT/KT) (MB)    (MI)  (FT/S)
HARRISON CRIB              36     120/ 13/ 14   N/A
BURNHAM HARBOR             36     120/  9       N/A
CALUMET HARBOR             38     130/  8/ 13 1022.5F
BURNS HARBOR               38     120/  9/ 17 1023.7F
MICHIGAN CITY              37     110/ 13/ 20   N/A
$$

ILZ025>027-034>036-040-047-049-050-058-095>099-230900-
WEST-CENTRAL ILLINOIS

CITY           SKY/WX    TMP DP  RH WIND       PRES   REMARKS
QUINCY         CLOUDY    38  38 100 S5        30.14S FOG     WCI  34
GALESBURG*     RAIN      41  41 100 SE3       30.13F
MACOMB*        RAIN     N/A N/A N/A CALM      30.16S VSB 1
JACKSONVILLE*  LGT RAIN  43  42  97 SE7       30.13S
PITTSFIELD*    RAIN      40  40 100 W8        30.18R VSB 3/4
$$

ILZ028>032-037-038-041>044-048-051>054-059>061-230900-
CENTRAL ILLINOIS

CITY           SKY/WX    TMP DP  RH WIND       PRES   REMARKS
PONTIAC        FOG       42  42  98 E12       30.16F VSB 3/4
BLOOMINGTON    FOG       42  42 100 SE13      30.16F VSB 1/2
DECATUR        LGT RAIN  45  45 100 SE12      30.16S
PEORIA         FOG       43  42  97 SE6       30.14F VSB 1/2
LACON*         DRIZZLE   41  41 100 CALM      30.14F
LINCOLN*       LGT RAIN  44  44 100 SE5       30.15F
SPRINGFIELD    CLOUDY    47  45  93 SE9       30.14F
TAYLORVILLE    CLOUDY    45  45 100 SE9       30.14F FOG
$$

ILZ033-039-045-046-055>057-062-063-230900-
EAST-CENTRAL ILLINOIS

CITY           SKY/WX    TMP DP  RH WIND       PRES   REMARKS
CHAMPAIGN      FOG       44  44 100 SE13      30.17S VSB 1/2
DANVILLE*      CLOUDY    43  43  99 SE7       30.18S
RANTOUL*       FOG       45  45 100 SE10      30.18S VSB 1
MATTOON        CLOUDY    45  45 100 SE10      30.15F FOG
PARIS*         CLOUDY    44  44 100 SE8       30.19F FOG
$$

ILZ079-100>102-230900-
SOUTHWEST ILLINOIS

CITY           SKY/WX    TMP DP  RH WIND       PRES   REMARKS
ALTON          CLOUDY    45  45 100 SE9       30.14F FOG
BELLEVILLE     CLOUDY    46  45  95 SE5       30.13F
CAHOKIA*       CLOUDY    46  45  96 S5          N/A
SPARTA*        CLOUDY    46  46 100 SE8       30.16F
$$

ILZ064>066-069>071-074>076-080>082-084>086-088>090-092>094-230900-
SOUTH-CENTRAL ILLINOIS

CITY           SKY/WX    TMP DP  RH WIND       PRES   REMARKS
CARBONDALE     CLOUDY    48  48 100 MISG      30.17F
CAIRO*         LGT RAIN  49  49 100 E6        30.20S
EFFINGHAM*     HVY RAIN  47  47 100 SE9       30.18F
MARION         CLOUDY    51  51  98 SE3       30.17F
MT. VERNON     CLOUDY    49  48  97 SE9       30.16F
CENTRALIA*     CLOUDY    49  49  99 SE12      30.13F
SALEM*         CLOUDY    49  48  94 SE8       30.15F
METROPOLIS*    CLOUDY    51  51  98 CALM      30.21F
$$

ILZ067-068-072-073-078-083-087-091-230900-
SOUTHEAST ILLINOIS

CITY           SKY/WX    TMP DP  RH WIND       PRES   REMARKS
LAWRENCEVILLE  RAIN      49  48  97 SE8       30.20F FOG
FLORA*         DRIZZLE   50  49  98 SE5       30.18F
FAIRFIELD*     RAIN      49  49 100 CALM      30.17F
HARRISBURG*    RAIN      50  50 100 SE12      30.19F
ROBINSON*      LGT RAIN  46  46 100 SE12      30.19F
CARMI*         RAIN      50  50 100 SE15      30.20F
$$

ABBREVIATIONS USED IN REMARKS
   TC - TEMPERATURE IN CELSIUS
  WCI - WIND CHILL INDEX
   HX - HEAT INDEX
  VSB - VISIBILITY
$$





USA.gov is the U.S. government's official web portal to all federal, state and local government web resources and services.